Flag for U.S.A. Weather past 2 weeks in Pontiac, Michigan, U.S.A.

Now
47 °F

Partly sunny.


Feels Like: 44 °F
Forecast: 46 / 64 °F
Wind: 6 mph from Southeast

Location: Oakland County International Airport

Current Time: Apr 1, 2015 at 9:28:05 PM

Latest Report: Apr 1, 2015 at 8:53 PM


Visibility: 8 mi

Pressure: 30.01 "Hg

Humidity: 74%

Dew point: 39 °F

Location of PontiacLocation

Historic Weather in Pontiac — Graph

°F

Pontiac temperature yesterday

Maximum temperature yesterday: 44 °F (at 5:53 PM)
Minimum temperature yesterday: 31 °F (at 2:53 AM)
Average temperature yesterday: 36 °F

Past Weeks' High & Low Weather Summary

 TemperatureHumidityPressure
High60 °F (Apr 1, 4:53 PM)100% (Mar 31, 6:53 AM)30.37 "Hg (Mar 31, 6:53 AM)
Low13 °F (Mar 28, 2:53 AM)23% (Mar 24, 4:53 PM)29.71 "Hg (Mar 30, 1:01 AM)
Average33 °F60%30.10 "Hg
* Reported Mar 17 7:53 PM — Apr 1 7:53 PM, Pontiac, Weather by CustomWeather, © 2015

Note: Actual official high and low records may vary slightly from our data, if they occured in-between our weather recording intervals... More about our weather records

Advertising

Pontiac weather history for previous 24 hours

 ConditionsComfort  
Time TempWeatherWind HumidityBarometerVisibility
7:53 PM
Wed, Apr 1
50 °FPartly sunny.12 mph63%30.01 "Hg8 mi
6:53 PM54 °FScattered clouds.12 mph51%30.01 "Hg9 mi
5:53 PM58 °FPassing clouds.6 mph38%30.04 "Hg10 mi
4:53 PM60 °FSunny.6 mph24%30.04 "Hg10 mi
3:53 PM59 °FPassing clouds.8 mph26%30.06 "Hg10 mi
2:53 PM57 °FPassing clouds.8 mph33%30.09 "Hg10 mi
1:53 PM53 °FPassing clouds.3 mph43%30.10 "Hg10 mi
12:53 PM51 °FSunny.8 mph46%30.12 "Hg10 mi
11:53 AM47 °FSunny.No wind56%30.12 "Hg10 mi
10:53 AM45 °FSunny.3 mph51%30.11 "Hg10 mi
9:53 AM41 °FSunny.No wind70%30.09 "Hg10 mi
8:53 AM36 °FSunny.3 mph82%30.08 "Hg7 mi
7:53 AM29 °FIce fog.No wind93%30.06 "Hg5 mi
6:53 AM32 °FPassing clouds.No wind88%30.03 "Hg8 mi
5:53 AM30 °FPassing clouds.No wind92%30.01 "Hg8 mi
4:53 AM31 °FPassing clouds.No wind92%30.00 "Hg9 mi
3:53 AM33 °FPassing clouds.No wind85%29.99 "Hg10 mi
2:53 AM35 °FPartly cloudy.No wind82%29.98 "Hg10 mi
1:53 AM34 °FMostly cloudy.3 mph82%29.98 "Hg10 mi
12:53 AM32 °FPassing clouds.No wind82%29.97 "Hg10 mi
11:53 PM
Tue, Mar 31
32 °FClear.No wind79%29.97 "Hg10 mi
10:53 PM36 °FPassing clouds.6 mph70%29.97 "Hg10 mi
9:53 PM36 °FPassing clouds.3 mph70%29.97 "Hg10 mi
Weather by CustomWeather, © 2015

See weather overviewHow to use our weather pages